Madison, MN

11:07 PM CST on December 14, 2019 (GMT -0600)
Madison-Lac Qui Parle County

Weather History for KDXX - October, 2019

Change the Weather History Date:

Tuesday, October 1, 2019

  Actual Average (WUND) Record (WUND)
Temperature  
Mean Temperature 50 °F -  
Max Temperature 55 °F - - (-1)
Min Temperature 46 °F - - (-1)
Degree Days  
Heating Degree Days 14    
Moisture  
Dew Point 45 °F    
Average Humidity 83    
Maximum Humidity 94    
Minimum Humidity 67    
Precipitation  
Precipitation 0.06 in - - ()
Sea Level Pressure  
Sea Level Pressure 30.06 in    
Wind  
Wind Speed 12 mph (North)    
Max Wind Speed 17 mph    
Max Gust Speed 22 mph    
Visibility 10 miles    
Events Rain    
Averages and records for this station are not official NWS values.
T = Trace of Precipitation, MM = Missing Value Source: NWS Daily Summary

Daily Weather History Graph

Daily Weather History Graph

Search for Another Location

Airport or City:

Astronomy

Oct. 01, 2019 Rise Set
Actual Time 7:22 AM CDT 7:05 PM CDT
Civil Twilight 6:53 AM CDT 7:34 PM CDT
Nautical Twilight 6:19 AM CDT 8:08 PM CDT
Astronomical Twilight 5:44 AM CDT 8:43 PM CDT
Moon 10:47 AM CDT (10/1) 9:10 PM CDT (10/1)
Length of Visible Light 12h 41m
Length of Day
11h 43m
Waxing Crescent, 12% of the Moon is Illuminated
Oct 1
Waxing Crescent
Oct 5
First Quarter
Oct 13
Full
Oct 21
Last Quarter
Oct 27
New

Hourly Weather History & Observations

Time (CDT) Temp. Windchill Dew Point Humidity Pressure Visibility Wind Dir Wind Speed Gust Speed Precip Events Conditions
12:19 AM 53.6 °F - 50.0 °F 88% 29.95 in 10.0 mi North 11.5 mph 18.4 mph N/A   Overcast
12:36 AM 53.6 °F - 50.0 °F 88% 29.97 in 10.0 mi North 11.5 mph - N/A   Overcast
12:55 AM 53.6 °F - 48.2 °F 82% 29.97 in 10.0 mi North 13.8 mph - N/A   Overcast
12:56 AM 53.6 °F - 48.2 °F 82% 29.97 in 10.0 mi North 15.0 mph - N/A   Overcast
1:15 AM 53.6 °F - 48.2 °F 82% 29.98 in 10.0 mi North 11.5 mph - N/A   Overcast
1:38 AM 53.6 °F - 48.2 °F 82% 29.98 in 10.0 mi North 10.4 mph - N/A   Overcast
1:57 AM 53.6 °F - 50.0 °F 88% 30.08 in 10.0 mi WNW 9.2 mph - N/A   Overcast
2:16 AM 51.8 °F - 50.0 °F 94% 30.04 in 10.0 mi NW 10.4 mph - N/A Rain Light Rain
2:35 AM 51.8 °F - 48.2 °F 88% 30.04 in 7.0 mi NW 12.7 mph - N/A Rain Rain
2:36 AM 51.8 °F - 48.2 °F 88% 30.04 in 7.0 mi NW 11.5 mph - 0.01 in Rain Rain
2:55 AM 51.8 °F - 48.2 °F 88% 30.01 in 7.0 mi NNW 13.8 mph - N/A Rain Light Rain
3:16 AM 50.0 °F - 48.2 °F 94% 30.01 in 10.0 mi North 11.5 mph 18.4 mph 0.01 in Rain Light Rain
3:35 AM 50.0 °F - 48.2 °F 94% 30.02 in 10.0 mi North 11.5 mph 18.4 mph 0.01 in   Overcast
3:36 AM 50.0 °F - 48.2 °F 94% 30.02 in 10.0 mi North 9.2 mph 18.4 mph 0.01 in   Overcast
3:55 AM 50.0 °F - 48.2 °F 94% 30.03 in 10.0 mi North 13.8 mph - 0.01 in   Overcast
3:56 AM 50.0 °F - 48.2 °F 94% 30.03 in 10.0 mi North 12.7 mph - N/A   Overcast
4:15 AM 50.0 °F - 46.4 °F 87% 30.05 in 10.0 mi NNW 15.0 mph 20.7 mph N/A   Overcast
4:19 AM 50.0 °F - 46.4 °F 87% 30.05 in 10.0 mi NNW 13.8 mph 20.7 mph N/A   Overcast
4:38 AM 48.2 °F - 46.4 °F 93% 30.06 in 10.0 mi NNW 10.4 mph - N/A   Overcast
4:55 AM 48.2 °F - 46.4 °F 93% 30.06 in 10.0 mi North 15.0 mph - N/A   Overcast
5:15 AM 48.2 °F - 46.4 °F 93% 30.05 in 10.0 mi North 11.5 mph - N/A   Overcast
5:16 AM 48.2 °F - 46.4 °F 93% 30.05 in 10.0 mi North 10.4 mph - N/A   Overcast
5:35 AM 48.2 °F - 46.4 °F 93% 30.03 in 10.0 mi North 15.0 mph 21.9 mph N/A   Overcast
5:36 AM 48.2 °F - 46.4 °F 93% 30.03 in 10.0 mi North 17.3 mph - N/A   Overcast
6:16 AM 48.2 °F - 46.4 °F 93% 30.06 in 10.0 mi North 10.4 mph - N/A   Scattered Clouds
6:35 AM 48.2 °F - 44.6 °F 87% 30.05 in 10.0 mi North 9.2 mph - N/A   Mostly Cloudy
6:36 AM 48.2 °F - 44.6 °F 87% 30.05 in 10.0 mi North 8.1 mph - N/A   Mostly Cloudy
6:55 AM 48.2 °F - 44.6 °F 87% 30.07 in 10.0 mi NNW 15.0 mph - N/A Rain Light Rain
6:56 AM 48.2 °F - 44.6 °F 87% 30.07 in 10.0 mi NNW 12.7 mph - N/A Rain Light Rain
7:15 AM 48.2 °F - 44.6 °F 87% 30.04 in 10.0 mi North 15.0 mph - N/A   Light Drizzle
7:20 AM 48.2 °F - 44.6 °F 87% 30.05 in 10.0 mi NNW 13.8 mph - N/A Rain Light Rain
7:38 AM 48.2 °F - 46.4 °F 93% 30.07 in 10.0 mi NNW 13.8 mph 18.4 mph 0.03 in   Overcast
7:55 AM 48.2 °F - 46.4 °F 93% 30.07 in 10.0 mi North 11.5 mph - 0.03 in Rain Light Rain
8:15 AM 48.2 °F - 46.4 °F 93% 30.06 in 10.0 mi North 13.8 mph 17.3 mph N/A   Overcast
8:16 AM 48.2 °F - 46.4 °F 93% 30.06 in 10.0 mi North 12.7 mph 17.3 mph N/A   Overcast
8:35 AM 48.2 °F - 46.4 °F 93% 30.05 in 10.0 mi North 12.7 mph 18.4 mph N/A Rain Light Rain
8:36 AM 48.2 °F - 46.4 °F 93% 30.06 in 10.0 mi North 15.0 mph 18.4 mph N/A Rain Light Rain
8:58 AM 46.4 °F 40.7 °F 44.6 °F 93% 30.06 in 10.0 mi North 12.7 mph - N/A Rain Light Rain
9:17 AM 48.2 °F - 44.6 °F 87% 30.08 in 10.0 mi North 12.7 mph - N/A   Overcast
9:36 AM 48.2 °F - 44.6 °F 87% 30.08 in 10.0 mi North 12.7 mph - N/A Rain Light Rain
9:55 AM 48.2 °F - 44.6 °F 87% 30.10 in 10.0 mi North 11.5 mph - N/A Rain Light Rain
9:56 AM 48.2 °F - 44.6 °F 87% 30.10 in 10.0 mi North 11.5 mph - N/A Rain Light Rain
10:15 AM 48.2 °F - 44.6 °F 87% 30.09 in 10.0 mi North 12.7 mph - N/A Rain Light Rain
10:19 AM 48.2 °F - 44.6 °F 87% 30.08 in 10.0 mi North 12.7 mph - 0.01 in Rain Light Rain
10:37 AM 48.2 °F - 44.6 °F 87% 30.08 in 10.0 mi North 11.5 mph - 0.01 in   Light Drizzle
10:56 AM 48.2 °F - 44.6 °F 87% 30.09 in 10.0 mi North 11.5 mph 17.3 mph N/A   Overcast
11:15 AM 48.2 °F - 44.6 °F 87% 30.09 in 10.0 mi North 13.8 mph 18.4 mph N/A   Overcast
11:16 AM 48.2 °F - 44.6 °F 87% 30.09 in 10.0 mi North 15.0 mph 18.4 mph N/A   Overcast
11:35 AM 48.2 °F - 42.8 °F 82% 30.09 in 10.0 mi North 12.7 mph - N/A   Overcast
11:39 AM 50.0 °F - 44.6 °F 82% 30.08 in 10.0 mi North 12.7 mph - N/A   Overcast
11:57 AM 50.0 °F - 44.6 °F 82% 30.08 in 10.0 mi North 13.8 mph 19.6 mph N/A   Overcast
12:15 PM 51.8 °F - 44.6 °F 76% 30.07 in 10.0 mi North 13.8 mph - N/A   Overcast
12:35 PM 51.8 °F - 44.6 °F 76% 30.08 in 10.0 mi NNE 12.7 mph 17.3 mph N/A   Overcast
12:55 PM 51.8 °F - 44.6 °F 76% 30.09 in 10.0 mi NE 10.4 mph - N/A   Overcast
1:18 PM 51.8 °F - 44.6 °F 76% 30.09 in 10.0 mi NNE 9.2 mph - N/A   Overcast
1:36 PM 51.8 °F - 44.6 °F 76% 30.08 in 10.0 mi North 11.5 mph - N/A   Overcast
1:55 PM 51.8 °F - 44.6 °F 76% 30.08 in 10.0 mi North 11.5 mph - N/A   Overcast
2:15 PM 51.8 °F - 44.6 °F 76% 30.08 in 10.0 mi North 11.5 mph - N/A   Overcast
2:16 PM 51.8 °F - 44.6 °F 76% 30.07 in 10.0 mi North 11.5 mph - N/A   Overcast
2:35 PM 51.8 °F - 44.6 °F 76% 30.07 in 10.0 mi North 8.1 mph - N/A   Overcast
2:40 PM 51.8 °F - 44.6 °F 76% 30.07 in 10.0 mi North 9.2 mph - N/A   Overcast
2:57 PM 51.8 °F - 44.6 °F 76% 30.08 in 10.0 mi NNE 11.5 mph - N/A   Overcast
3:15 PM 51.8 °F - 44.6 °F 76% 30.07 in 10.0 mi North 9.2 mph - N/A   Overcast
3:35 PM 53.6 °F - 44.6 °F 72% 30.07 in 10.0 mi North 13.8 mph - N/A   Overcast
3:55 PM 53.6 °F - 44.6 °F 72% 30.05 in 10.0 mi NNE 12.7 mph - N/A   Mostly Cloudy
3:56 PM 53.6 °F - 44.6 °F 72% 30.05 in 10.0 mi NNE 13.8 mph - N/A   Mostly Cloudy
4:19 PM 53.6 °F - 44.6 °F 72% 30.05 in 10.0 mi North 11.5 mph - N/A   Overcast
4:36 PM 53.6 °F - 46.4 °F 77% 30.05 in 10.0 mi North 9.2 mph - N/A   Overcast
4:56 PM 53.6 °F - 46.4 °F 77% 30.04 in 10.0 mi North 10.4 mph - N/A   Overcast
5:15 PM 55.4 °F - 46.4 °F 72% 30.03 in 10.0 mi North 9.2 mph - N/A   Mostly Cloudy
5:35 PM 55.4 °F - 46.4 °F 72% 30.02 in 10.0 mi NNE 8.1 mph - N/A   Mostly Cloudy
5:39 PM 55.4 °F - 46.4 °F 72% 30.03 in 10.0 mi NNE 8.1 mph - N/A   Overcast
5:58 PM 55.4 °F - 46.4 °F 72% 30.04 in 10.0 mi NNE 9.2 mph - N/A   Overcast
6:15 PM 55.4 °F - 44.6 °F 67% 30.04 in 10.0 mi North 10.4 mph - N/A   Overcast
6:35 PM 53.6 °F - 44.6 °F 72% 30.05 in 10.0 mi North 11.5 mph - N/A   Overcast
6:36 PM 53.6 °F - 44.6 °F 72% 30.05 in 10.0 mi North 11.5 mph - N/A   Overcast
6:55 PM 53.6 °F - 44.6 °F 72% 30.05 in 10.0 mi North 11.5 mph - N/A   Overcast
7:18 PM 53.6 °F - 44.6 °F 72% 30.05 in 10.0 mi North 9.2 mph - N/A   Overcast
7:36 PM 53.6 °F - 44.6 °F 72% 30.05 in 10.0 mi North 11.5 mph 18.4 mph N/A   Overcast
7:55 PM 51.8 °F - 44.6 °F 76% 30.05 in 10.0 mi North 15.0 mph - N/A   Overcast
7:56 PM 51.8 °F - 44.6 °F 76% 30.05 in 10.0 mi North 15.0 mph - N/A   Overcast
8:15 PM 51.8 °F - 44.6 °F 76% 30.06 in 10.0 mi North 12.7 mph - N/A   Overcast
8:16 PM 51.8 °F - 44.6 °F 76% 30.06 in 10.0 mi North 12.7 mph - N/A   Overcast
8:35 PM 51.8 °F - 42.8 °F 71% 30.07 in 10.0 mi NNW 12.7 mph 20.7 mph N/A   Overcast
8:40 PM 50.0 °F - 42.8 °F 76% 30.07 in 10.0 mi North 15.0 mph - N/A   Overcast
8:57 PM 50.0 °F - 42.8 °F 76% 30.07 in 10.0 mi North 13.8 mph 19.6 mph N/A   Overcast
9:16 PM 50.0 °F - 42.8 °F 76% 30.09 in 10.0 mi North 11.5 mph 17.3 mph N/A   Overcast
9:35 PM 48.2 °F - 42.8 °F 82% 30.09 in 10.0 mi North 15.0 mph 19.6 mph N/A   Overcast
9:36 PM 48.2 °F - 42.8 °F 82% 30.09 in 10.0 mi North 12.7 mph 19.6 mph N/A   Overcast
9:55 PM 48.2 °F - 42.8 °F 82% 30.09 in 10.0 mi North 13.8 mph - N/A   Overcast
9:56 PM 48.2 °F - 42.8 °F 82% 30.09 in 10.0 mi North 12.7 mph - N/A   Overcast
10:18 PM 48.2 °F - 42.8 °F 82% 30.09 in 10.0 mi North 16.1 mph - N/A   Overcast
10:35 PM 48.2 °F - 41.0 °F 76% 30.09 in 10.0 mi North 13.8 mph 19.6 mph N/A   Overcast
10:55 PM 48.2 °F - 41.0 °F 76% 30.09 in 10.0 mi North 11.5 mph - N/A   Mostly Cloudy
10:56 PM 48.2 °F - 41.0 °F 76% 30.09 in 10.0 mi North 11.5 mph - N/A   Mostly Cloudy
11:15 PM 46.4 °F 41.1 °F 41.0 °F 81% 30.10 in 10.0 mi North 11.5 mph - N/A   Overcast
11:38 PM 46.4 °F 40.4 °F 41.0 °F 81% 30.09 in 10.0 mi North 13.8 mph 20.7 mph N/A   Overcast
11:56 PM 46.4 °F 41.1 °F 41.0 °F 81% 30.09 in 10.0 mi North 11.5 mph 19.6 mph N/A   Overcast